COSMOS 2251 DEB, 35959

Orbit data source: Space-Track

COSMOS 2251 DEB, 35959 is space debris in LEO originally from a launch on Wed, 16 Jun 1993 UTC launched from the Plesetsk Missile And Space Complex (PKMTR). The debris from Iridium 33, an American commercial communications satellite, has been tracked extensively since its accidental collision with the defunct Russian satellite Cosmos 2251 in 2009. This event, occurring at high speed in low Earth orbit (LEO), generated thousands of pieces of space debris, significantly increasing the risk of further collisions. The Iridium 33 debris cloud has impacted space traffic management and orbital debris mitigation strategies, making it a subject of ongoing study in space situational awareness.

Loading next visibility...
Identifier
35959, 1993-036AUZ
Orbit
LEO
Country
Flag of CISCIS
Related business
Manufacturer
Unknown
Mission
Spacecraft
Bus & Motor
Unknown
Mass
Unknown
Launch date (UTC)
1993-06-16 (33 years ago)
Launch vehicle
Unknown
Launch site
Plesetsk Missile And Space Complex (PKMTR)
Object type
Payload
Rocket body
Debris
Shape & HBR
Unknown shape, 0.1 m
Radar Cross Section
Small (<0.1 m²)

Expand to show TLE details & history
Last TLE update: 2 days ago

TLE from 2 days ago
0 COSMOS 2251 DEB
1 35959U 93036AUZ 26119.23459236  .00000251  00000-0  98586-4 0  9993
2 35959  74.0331  60.3387 0021316 112.2208 248.1208 14.34232702868990
Epoch: 2026-04-29T05:37Z
TLE epoch observation values (Epoch: 2026-04-29T05:37:48.779Z)
Latitude
-0.00004°
Longitude
118.68697°
Altitude
785.939 km
Speed
7.458 km/s
True Right ascension
04h 01m 21s
True Declination
0° 00' 00"
Sunlit
Object was in daylight at epoch
Visualization orbit readout
Latitude
Unknown
Longitude
Unknown
Altitude
Unknown
Speed
Unknown
Apparent Right ascension
Unknown
Apparent Declination
Unknown
Sunlit
N/A
Visualization observer readout
Local Sidereal Time
18:33:12
Azimuth
Unknown
Elevation
Unknown
Doppler factor
Unknown
Orbital elements
Apogee altitude
790.492 km
Perigee altitude
759.995 km
Semi-major axis
7,153.381 km
Eccentricity
0.00213
Inclination
74.0331°
RAAN
60.3387°
Arg. of periapsis
112.2208°
True anomaly
247.89436°
Mean anomaly
248.1208°
Eccentric anomaly
248.00756°
Mean motion
3.58737 °/min
Orbital period
100.35 mins
BSTAR
0.000098586
Loading maneuver chart data...
Computing Atmospheric mass density...

Documentation

Showing up to 5 results
|